TIME,DELAY(SENSOR),PRES,OXYGEN,RAWTEMP,T(OPTODE),TCPHASE,FLUOR,BETA(BETA700),BETA(BETA412),BETA(BETA440),CDOM,C(CSC),ED(ED412.20),ED(ED444.00),ED(ED489.60),ED(ED554.30),LU(LU412.10),LU(LU443.90),LU(LU489.70),LU(LU554.70),COMP,TILTX,TILTY,CHECK
1359946845,5810,877.2399902343750000,36.4838790893554700,561.5618286132812000,4.4374828338623050,56.0639915466308600,56,100,100,78,82,15541,0,0,0,0,2147122852,2147770989,2147572635,2147569901,1324,3,13,19063
1359950441,5810,942.0200195312500000,40.5659904479980500,565.6817016601562000,4.3096752166748050,55.4831314086914060,55,98,100,78,81,15543,0,0,0,0,2147124470,2147775140,2147572123,2147564260,227,2,13,8963
1359954041,5810,949.5399780273438000,40.3094100952148440,566.3118896484375000,4.2901129722595215,55.5262489318847660,56,99,100,77,82,15541,0,0,0,0,2147121572,2147772964,2147569938,2147569216,402,2,13,57553
1359957641,5811,977.9299926757812000,42.2229309082031250,570.5103759765625000,4.1596999168396000,55.2961997985839840,54,100,99,77,82,15539,0,0,0,0,2147124324,2147769718,2147568429,2147570441,3190,2,13,43001
1359961241,5809,984.1900024414062000,42.4933090209960940,570.7407226562500000,4.1525421142578125,55.2581100463867200,55,98,100,78,82,15539,0,0,0,0,2147125549,2147778148,2147570194,2147566217,248,3,13,37879
1359964841,5811,992.1699829101562000,41.7691993713378900,570.4202880859375000,4.1624970436096190,55.3553810119628900,54,98,99,78,82,15537,0,0,0,0,2147122349,2147771766,2147572288,2147570194,3165,2,13,56147
1359968441,5810,993.2600097656250000,41.7091102600097660,570.4434814453125000,4.1617789268493650,55.3662300109863300,54,96,100,78,81,15536,0,0,0,0,2147123593,2147771492,2147571291,2147569462,3259,2,13,22112
1359972041,5810,996.2000122070312000,41.8894996643066400,570.8115234375000000,4.1503410339355470,55.3472785949707000,54,99,99,78,82,15538,0,0,0,0,2147122934,2147776859,2147575570,2147566528,125,2,13,44335
1359975641,5813,992.4199829101562000,41.4742202758789060,570.3848266601562000,4.1636028289794920,55.4003791809082000,55,98,100,77,82,15538,0,0,0,0,2147121252,2147769700,2147574838,2147567497,55,2,13,49272
1359979241,5810,988.7299804687500000,41.9620399475097660,571.7687988281250000,4.1205811500549320,55.3416709899902340,55,98,100,78,82,15538,0,0,0,0,2147123574,2147769636,2147576713,2147570121,74,2,13,34111
1359982841,5812,993.4699707031250000,41.9268989562988300,571.5402832031250000,4.1276860237121580,55.3482589721679700,54,102,100,77,81,15532,0,0,0,0,2147121846,2147778989,2147575588,2147567204,3450,2,13,21564
1359986441,5812,994.5300292968750000,41.6540908813476560,571.1047973632812000,4.1412239074707030,55.3807792663574200,54,97,100,78,81,15533,0,0,0,0,2147123172,2147771008,2147571264,2147569545,3581,2,13,64848
1359990041,5809,996.0900268554688000,42.0789299011230500,571.8482055664062000,4.1181130409240720,55.3248596191406250,54,98,100,77,82,15532,0,0,0,0,2147119872,2147770368,2147572013,2147570870,473,2,13,58682
1359993641,5809,991.9400024414062000,41.8273582458496100,571.7714233398438000,4.1205010414123535,55.3613014221191400,55,101,100,78,81,15532,0,0,0,0,2147122048,2147773376,2147573065,2147566153,430,2,13,45545
1359997241,5809,994.0700073242188000,41.8613090515136700,572.3043823242188000,4.1039280891418460,55.3641090393066400,55,97,100,78,82,15530,0,0,0,0,2147122194,2147775277,2147574774,2147572022,299,2,13,24517
1360000841,5810,996.0200195312500000,42.2429885864257800,572.3292846679688000,4.1031532287597660,55.3072395324707000,55,98,100,78,82,15530,0,0,0,0,2147122605,2147770221,2147574866,2147569974,21,3,13,20104
1360004441,5807,995.1500244140625000,41.7157592773437500,571.8696899414062000,4.1174449920654300,55.3806381225585940,55,100,100,77,82,15531,0,0,0,0,2147123053,2147775396,2147578788,2147570550,111,2,13,36358
1360008041,5812,1002.6199951171875000,41.7690505981445300,570.9295043945312000,4.1466732025146480,55.3639984130859400,54,98,100,79,82,15525,0,0,0,0,2147122029,2147774281,2147572562,2147566957,3514,2,13,57825
1360011641,5808,999.9500122070312000,41.6246604919433600,571.0183105468750000,4.1439127922058105,55.3828506469726560,55,101,100,78,82,15530,0,0,0,0,2147119222,2147773440,2147573997,2147570541,125,2,13,62042
1360015241,5810,994.7100219726562000,41.3304901123046900,571.5300292968750000,4.1280040740966800,55.4328193664550800,55,99,100,79,82,15531,0,0,0,0,2147124050,2147771629,2147575853,2147571190,285,3,13,26477
1360018841,5812,996.5499877929688000,41.9896583557128900,572.7855834960938000,4.0889630317687990,55.3500785827636700,55,97,101,78,82,15530,0,0,0,0,2147124836,2147773046,2147576228,2147568000,110,2,13,8363
1360022441,5808,992.7399902343750000,42.2684898376464840,572.7968750000000000,4.0886120796203610,55.3111686706543000,55,101,100,78,81,15528,0,0,0,0,2147121124,2147776512,2147575414,2147566317,813,2,13,29540
1360026041,5809,997.4400024414062000,42.3939590454101560,572.8270263671875000,4.0876770019531250,55.2915306091308600,55,100,99,77,80,15530,0,0,0,0,2147119570,2147772534,2147576521,2147564955,242,2,13,35795
1360029641,5808,1007.5700073242188000,41.9269409179687500,571.2813110351562000,4.1357359886169430,55.3411903381347660,55,99,100,78,81,15527,0,0,0,0,2147121773,2147769984,2147574390,2147566198,516,2,13,41815
1360033241,5809,998.4199829101562000,41.5922698974609400,571.4171142578125000,4.1315169334411620,55.3950195312500000,55,100,101,77,81,15523,0,0,0,0,2147123044,2147772690,2147575021,2147569563,670,3,13,841
1360036841,5810,999.2000122070312000,41.4783897399902340,571.3811035156250000,4.1326351165771480,55.4098510742187500,55,98,99,79,82,15524,0,0,0,0,2147121234,2147777609,2147574646,2147569206,3312,2,13,52385
1360040441,5811,1002.9500122070312000,41.7975807189941400,571.7515258789062000,4.1211190223693850,55.3662300109863300,55,97,101,78,81,15527,0,0,0,0,2147124077,2147779968,2147580818,2147570834,3439,2,13,13595
1360044041,5809,996.3900146484375000,41.4121398925781250,572.2116699218750000,4.1068120002746580,55.4306907653808600,54,98,101,78,82,15528,0,0,0,0,2147126226,2147774710,2147573101,2147563593,254,2,13,31812
1360047641,5807,996.4299926757812000,41.6889495849609400,572.9899291992188000,4.0826110839843750,55.3958091735839840,55,99,99,79,84,15524,0,0,0,0,2147122368,2147773888,2147571986,2147570276,126,3,13,3119
1360051241,5810,994.7999877929688000,42.4972305297851560,573.1599121093750000,4.0773220062255860,55.2807312011718750,55,98,100,77,82,15527,0,0,0,0,2147126464,2147774043,2147579282,2147565732,125,3,13,58741
1360054841,5809,995.6300048828125000,43.1772499084472660,573.7495117187500000,4.0589828491210940,55.1908798217773440,55,97,100,78,82,15529,0,0,0,0,2147121462,2147771062,2147577828,2147567744,227,2,13,52065
1360058441,5807,994.2899780273438000,43.2704696655273440,573.8203125000000000,4.0567817687988280,55.1743698120117200,54,98,100,78,82,15527,0,0,0,0,2147122496,2147775442,2147576256,2147567286,119,3,13,14652
1360062041,5812,994.3300170898438000,42.8433303833007800,573.8889770507812000,4.0546441078186035,55.2386894226074200,54,98,100,78,82,15524,0,0,0,0,2147126153,2147779593,2147574144,2147566738,3446,2,13,23268
1360065641,5809,1000.3699951171875000,42.2874488830566400,572.6746826171875000,4.0924129486083980,55.3042106628418000,54,98,100,78,82,15525,0,0,0,0,2147120374,2147770925,2147573302,2147569782,172,2,13,35067
1360069241,5811,995.4400024414062000,41.7731094360351560,573.1237792968750000,4.0784449577331540,55.3847999572753900,55,96,100,78,81,15518,0,0,0,0,2147125248,2147780973,2147575606,2147570688,34,2,13,58428
1360072841,5807,999.0300292968750000,42.6722602844238300,573.2794189453125000,4.0736079216003420,55.2566986083984400,54,97,101,78,83,15520,0,0,0,0,2147120731,2147776201,2147571163,2147565924,416,2,13,13192
1360076441,5810,1003.6099853515625000,41.6151695251464840,571.9993286132812000,4.1134147644042970,55.3992385864257800,55,97,100,77,82,15517,0,0,0,0,2147122541,2147773979,2147570614,2147566034,136,2,13,53062
1360080041,5809,1005.5200195312500000,41.5234794616699200,571.9365234375000000,4.1153659820556640,55.4128608703613300,55,98,100,78,82,15517,0,0,0,0,2147122450,2147773650,2147575314,2147567049,271,2,13,31987
1360083641,5808,1004.2500000000000000,41.7618484497070300,571.6718139648438000,4.1235980987548830,55.3750495910644500,56,98,100,77,82,15517,0,0,0,0,2147122989,2147775488,2147572416,2147566061,110,3,13,48423
1360087241,5811,1004.1900024414062000,41.5160484313964840,571.9360961914062000,4.1153807640075680,55.4067192077636700,54,97,100,78,81,15513,0,0,0,0,2147122541,2147772955,2147574336,2147567049,3453,2,13,63689
1360090841,5809,1008.3699951171875000,41.2198295593261700,570.6281127929688000,4.1560420989990230,55.4431991577148440,54,104,98,77,81,15513,0,0,0,0,2147124900,2147770596,2147571657,2147566656,152,2,13,24567
1360091756,5807,1006.2500000000000000,41.0977096557617200,570.6259765625000000,4.1561050415039060,55.4575195312500000,55,100,99,77,81,15514,0,0,0,0,2147121216,2147773385,2147576365,2147571968,378,3,13,64863
